Stations météo

Publicité
Paris-Montsouris, France (7156): Température de l'air & dewpoint: 19.05.2017 08:00:00 - 25.05.2017 08:00:00 (CEST)Paris-Montsouris, France (7156): Température de l'air 5cm: 19.05.2017 08:00:00 - 25.05.2017 08:00:00 (CEST)Paris-Montsouris, France (7156): Température de l'air -20cm & Température de l'air -100cm: 19.05.2017 08:00:00 - 25.05.2017 08:00:00 (CEST)Paris-Montsouris, France (7156): Vitesse du vent & gusts: 19.05.2017 08:00:00 - 25.05.2017 08:00:00 (CEST)Paris-Montsouris, France (7156): Direction du vent: 19.05.2017 08:00:00 - 25.05.2017 08:00:00 (CEST)Paris-Montsouris, France (7156): reduced air pressure: 19.05.2017 08:00:00 - 25.05.2017 08:00:00 (CEST)Paris-Montsouris, France (7156): visibility: 19.05.2017 08:00:00 - 25.05.2017 08:00:00 (CEST)Paris-Montsouris, France (7156): Ensoleillement: 19.05.2017 08:00:00 - 25.05.2017 08:00:00 (CEST)Paris-Montsouris, France (7156): Quantités de précipitations: 19.05.2017 08:00:00 - 25.05.2017 08:00:00 (CEST)
Date & Time tt [°C] td [°C] tt 5cm [°C] tt -20cm [°C] tt -100cm [°C] ff [km/h] ff [knt] fx [km/h] fx [knt] dd ppp [hPa] vv [km] sd [min] rr [mm]
25.05.2017 08:00:00 17,8 12,3 14,8 18,0 14,1 11 6 23 13 ENE 1023,3 20 60 0,0
25.05.2017 07:00:00 16,2 12,2 13,8 18,1 14,1 9 5 25 14 ENE 1023,2 20 30 0,0
25.05.2017 06:00:00 16,3 11,9 14,0 18,3 14,1 13 7 28 15 NE 1023,0 20 0 0,0
25.05.2017 05:00:00 16,8 11,5 14,4 18,4 14,1 10 6 29 16 ENE 1023,1 20 0 0,0
25.05.2017 04:00:00 17,2 11,9 14,3 18,5 14,1 10 5 27 14 NE 1023,2 20 0 0,0
25.05.2017 03:00:00 17,5 12,8 15,0 18,6 14,1 13 7 26 14 NNE 1023,4 20 0 0,0
25.05.2017 02:00:00 17,9 14,0 15,7 18,7 14,1 11 6 28 15 NE 1023,8 20 0 0,0
25.05.2017 01:00:00 18,8 14,9 15,8 18,9 14,1 11 6 26 14 NNE 1024,1 20 0 0,0
25.05.2017 00:00:00 19,3 13,0 15,3 19,0 14,1 10 5 22 12 NNE 1024,1 20 0 0,0
24.05.2017 23:00:00 19,8 12,5 16,1 19,1 14,1 8 4 21 11 NE 1024,3 20 0 0,0
24.05.2017 22:00:00 20,7 12,4 17,0 19,1 14,1 11 6 28 15 ENE 1024,0 20 9 0,0
24.05.2017 21:00:00 21,5 12,6 19,1 19,1 14,0 9 5 30 16 NE 1024,1 20 60 0,0
24.05.2017 20:00:00 23,2 13,4 23,8 19,0 14,0 15 8 31 17 NE 1023,9 20 60 0,0
24.05.2017 19:00:00 24,4 14,2 25,5 18,9 14,0 11 6 29 15 NE 1023,7 20 54 0,0
24.05.2017 18:00:00 24,2 14,6 24,2 18,8 14,0 9 5 26 14 NE 1023,9 20 31 0,0
24.05.2017 17:00:00 23,7 13,8 24,8 18,6 14,0 9 5 28 15 ENE 1024,3 20 26 0,0
24.05.2017 16:00:00 23,8 13,3 25,0 18,3 14,0 11 6 25 13 NNE 1024,7 20 41 0,0
24.05.2017 15:00:00 23,1 13,6 24,8 18,1 13,9 10 5 27 15 NE 1024,9 20 36 0,0
24.05.2017 14:00:00 22,3 13,9 24,6 18,0 14,0 7 4 20 11 NE 1025,2 20 32 0,0
24.05.2017 13:00:00 21,6 13,2 21,9 17,9 13,9 8 4 19 10 NE 1025,8 20 15 0,0
24.05.2017 12:00:00 19,4 13,3 20,9 17,8 13,9 9 5 17 9 NNW 1026,2 20 6 0,0
24.05.2017 11:00:00 18,7 14,2 19,0 17,8 13,9 6 3 16 8 N 1026,3 20 0 0,0
24.05.2017 10:00:00 17,7 14,0 17,8 17,8 13,9 6 3 14 8 NNW 1026,3 20 0 0,0
24.05.2017 09:00:00 17,0 13,7 16,6 17,8 13,9 3 2 12 6 NNE 1026,1 20 0 0,0
24.05.2017 08:00:00 16,3 13,6 16,1 17,9 13,9 6 3 17 9 N 1025,9 20 0 0,0
24.05.2017 07:00:00 16,0 13,7 15,4 18,0 13,9 6 3 18 10 N 1025,6 20 0 0,0
24.05.2017 06:00:00 15,7 13,5 15,3 18,1 13,9 7 4 21 11 N 1025,4 20 0 0,0
24.05.2017 05:00:00 16,3 13,8 15,0 18,2 13,9 9 5 23 12 N 1025,1 20 0 0,0
24.05.2017 04:00:00 16,8 13,7 14,3 18,3 13,9 12 6 23 13 NNW 1025,1 20 0 0,0
24.05.2017 03:00:00 17,0 13,5 14,8 18,4 13,9 10 6 24 13 N 1024,9 20 0 0,0
24.05.2017 02:00:00 17,4 13,7 15,1 18,5 13,9 11 6 28 15 N 1024,9 20 0 0,0
24.05.2017 01:00:00 18,1 13,6 16,0 18,6 13,9 14 7 29 16 N 1025,1 20 0 0,0
24.05.2017 00:00:00 18,7 13,8 16,8 18,7 13,9 11 6 34 19 N 1024,8 20 0 0,0
23.05.2017 23:00:00 19,9 13,8 17,7 18,8 13,9 14 7 29 16 N 1024,9 20 0 0,0
23.05.2017 22:00:00 20,8 13,2 18,7 18,9 13,8 11 6 27 15 NW 1024,2 20 8 0,0
23.05.2017 21:00:00 22,0 13,1 20,8 18,9 13,8 10 5 29 16 NW 1023,3 20 58 0,0
23.05.2017 20:00:00 23,2 12,2 24,0 18,8 13,8 13 7 30 16 NW 1023,0 20 60 0,0
23.05.2017 19:00:00 24,1 12,4 22,7 18,7 13,8 9 5 31 17 N 1022,8 20 47 0,0
23.05.2017 18:00:00 24,2 12,8 27,8 18,6 13,8 10 6 32 18 NNW 1022,7 20 60 0,0
23.05.2017 17:00:00 24,1 12,1 27,9 18,3 13,8 15 8 31 17 N 1022,6 20 60 0,0
23.05.2017 16:00:00 23,0 12,0 26,6 18,1 13,8 16 9 32 17 N 1022,4 20 60 0,0
23.05.2017 15:00:00 22,2 12,4 26,8 17,8 13,8 15 8 42 23 N 1022,4 20 60 0,0
23.05.2017 14:00:00 22,3 13,1 27,1 17,6 13,8 15 8 35 19 NNW 1022,5 20 60 0,0
23.05.2017 13:00:00 21,2 12,1 26,9 17,4 13,8 13 7 27 15 NNW 1022,1 20 60 0,0
23.05.2017 12:00:00 20,3 12,0 25,1 17,3 13,8 10 5 28 15 NW 1022,0 20 60 0,0
23.05.2017 11:00:00 18,7 12,4 23,1 17,2 13,7 12 7 31 17 NNW 1021,7 20 60 0,0
23.05.2017 10:00:00 17,4 12,1 18,8 17,3 13,8 14 8 32 18 NNW 1021,6 20 53 0,0
23.05.2017 09:00:00 15,6 12,0 15,1 17,3 13,7 13 7 32 17 NNW 1021,1 18 28 0,0
23.05.2017 08:00:00 14,6 11,7 14,4 17,4 13,7 12 7 31 17 NNW 1020,4 19 22 0,0
23.05.2017 07:00:00 15,0 11,9 14,1 17,5 13,7 11 6 26 14 NW 1019,6 20 2 0,0
23.05.2017 06:00:00 15,4 12,0 14,3 17,6 13,7 11 6 28 15 NW 1018,8 20 0 0,0
23.05.2017 05:00:00 16,5 12,5 15,3 17,7 13,7 10 5 30 16 WNW 1018,3 20 0 0,0
23.05.2017 04:00:00 18,2 12,4 16,5 17,8 13,7 9 5 31 17 NW 1017,6 20 0 0,0
23.05.2017 03:00:00 19,2 12,7 15,1 17,9 13,7 7 4 16 9 W 1017,1 20 0 0,0
23.05.2017 02:00:00 19,1 12,4 14,9 18,0 13,7 6 3 13 7 W 1016,8 20 0 0,0
23.05.2017 01:00:00 18,8 13,0 14,7 18,2 13,7 7 4 11 6 W 1016,8 20 0 0,0
23.05.2017 00:00:00 19,8 13,5 15,4 18,3 13,7 6 3 13 7 WSW 1016,6 20 0 0,0
22.05.2017 23:00:00 21,0 13,2 16,4 18,3 13,7 6 4 12 7 W 1016,4 20 0 0,0
22.05.2017 22:00:00 21,2 12,9 16,5 18,4 13,7 6 3 13 7 WSW 1015,7 20 1 0,0
22.05.2017 21:00:00 23,5 13,1 20,2 18,3 13,7 9 5 20 11 SW 1015,0 20 60 0,0
22.05.2017 20:00:00 25,0 11,9 24,7 18,3 13,7 12 6 29 16 WSW 1015,0 20 57 0,0
22.05.2017 19:00:00 25,1 12,0 26,0 18,2 13,7 13 7 24 13 SSW 1014,7 20 26 0,0
22.05.2017 18:00:00 25,6 10,2 27,0 18,0 13,6 11 6 21 12 SW 1015,1 20 31 0,0
22.05.2017 17:00:00 25,4 10,8 28,1 17,8 13,7 8 5 20 11 SW 1015,2 20 15 0,0
22.05.2017 16:00:00 24,9 11,1 27,7 17,5 13,6 6 3 23 13 SE 1015,5 20 13 0,0
22.05.2017 15:00:00 24,9 11,1 25,3 17,3 13,6 9 5 26 14 SSE 1015,6 20 26 0,0
22.05.2017 14:00:00 23,4 11,1 25,2 17,1 13,6 10 5 34 18 SSE 1016,0 20 10 0,0
22.05.2017 13:00:00 23,2 10,3 26,3 16,8 13,6 12 6 28 15 SSE 1015,9 20 39 0,0
22.05.2017 12:00:00 23,9 10,2 29,2 16,5 13,6 10 5 26 14 SE 1016,3 20 60 0,0
22.05.2017 11:00:00 23,0 11,7 26,7 16,4 13,6 9 5 24 13 SSE 1016,5 20 60 0,0
22.05.2017 10:00:00 20,8 9,7 22,9 16,4 13,6 6 3 22 12 ESE 1016,8 20 60 0,0
22.05.2017 09:00:00 17,8 9,2 14,6 16,5 13,6 6 3 24 13 ESE 1016,9 20 58 0,0
22.05.2017 08:00:00 15,1 8,6 11,0 16,6 13,6 7 4 16 8 E 1017,3 20 60 0,0
22.05.2017 07:00:00 12,7 8,0 8,8 16,7 13,6 2 1 9 5 ENE 1017,7 20 13 0,0
22.05.2017 06:00:00 12,4 7,5 8,5 16,9 13,6 3 1 9 5 NE 1017,7 20 0 0,0
22.05.2017 05:00:00 12,7 7,4 8,9 17,0 13,6 4 2 14 8 E 1017,5 20 0 0,0
22.05.2017 04:00:00 13,4 7,2 9,4 17,2 13,6 6 4 18 10 ESE 1018,1 17 0 0,0
22.05.2017 03:00:00 14,5 7,3 10,6 17,3 13,6 7 4 18 10 E 1018,5 20 0 0,0
22.05.2017 02:00:00 15,2 7,5 11,2 17,5 13,6 8 5 23 12 E 1018,9 20 0 0,0
22.05.2017 01:00:00 15,7 7,5 11,4 17,6 13,6 6 3 18 10 E 1019,4 20 0 0,0
22.05.2017 00:00:00 16,4 7,3 11,8 17,8 13,6 8 4 21 11 ESE 1020,0 20 0 0,0
21.05.2017 23:00:00 17,0 7,1 12,7 17,9 13,5 10 5 21 12 ESE 1020,3 20 0 0,0
21.05.2017 22:00:00 18,2 7,6 14,5 18,0 13,5 10 5 24 13 ESE 1020,5 20 6 0,0
21.05.2017 21:00:00 19,2 7,0 16,9 18,0 13,5 15 8 31 17 ESE 1020,5 20 55 0,0
21.05.2017 20:00:00 21,1 8,0 22,5 17,9 13,5 10 6 29 16 SE 1020,8 20 60 0,0
21.05.2017 19:00:00 21,4 7,6 21,5 17,8 13,5 14 7 36 19 ESE 1021,2 20 54 0,0
21.05.2017 18:00:00 22,5 8,6 23,3 17,6 13,5 11 6 30 16 SSE 1021,7 20 54 0,0
21.05.2017 17:00:00 22,4 7,8 22,4 17,4 13,5 7 4 26 14 SE 1022,4 20 50 0,0
21.05.2017 16:00:00 22,2 9,7 21,9 17,1 13,5 12 7 30 16 ESE 1023,2 20 25 0,0
21.05.2017 15:00:00 21,1 8,0 21,2 16,8 13,5 11 6 28 15 ESE 1023,8 20 38 0,0
21.05.2017 14:00:00 21,3 9,2 22,4 16,5 13,5 12 7 27 15 SSE 1024,6 20 41 0,0
21.05.2017 13:00:00 21,1 8,4 21,9 16,2 13,5 9 5 28 15 SE 1025,1 20 52 0,0
21.05.2017 12:00:00 19,3 8,9 21,6 16,0 13,5 11 6 23 13 E 1025,9 20 54 0,0
21.05.2017 11:00:00 19,0 9,5 24,6 15,9 13,5 9 5 18 10 ESE 1026,0 20 60 0,0
21.05.2017 10:00:00 17,7 9,6 22,7 15,9 13,5 6 3 13 7 SE 1026,5 20 60 0,0
21.05.2017 09:00:00 15,5 10,0 11,4 16,0 13,4 5 3 10 5 SE 1026,5 20 60 0,0
21.05.2017 08:00:00 11,4 9,1 8,1 16,1 13,5 3 2 8 5 SE 1026,4 20 50 0,0
21.05.2017 07:00:00 9,9 8,5 6,9 16,2 13,4 4 2 7 4 SSE 1026,3 20 32 0,0
21.05.2017 06:00:00 9,8 8,2 6,7 16,4 13,5 4 2 6 4 S 1026,0 20 0 0,0
21.05.2017 05:00:00 10,0 8,1 7,0 16,6 13,4 3 2 7 4 S 1025,9 20 0 0,0
21.05.2017 04:00:00 10,3 8,2 6,9 16,7 13,4 5 3 9 5 S 1025,8 20 0 0,0
21.05.2017 03:00:00 10,5 8,1 6,9 16,9 13,4 5 3 14 8 SSW 1025,9 20 0 0,0
21.05.2017 02:00:00 11,3 8,2 8,1 17,0 13,4 7 4 14 7 SSW 1026,0 20 0 0,0
21.05.2017 01:00:00 11,7 8,0 8,6 17,2 13,4 8 4 15 8 SW 1026,0 20 0 0,0
21.05.2017 00:00:00 12,6 7,9 9,3 17,3 13,4 7 4 16 8 SSW 1025,7 20 0 0,0
20.05.2017 23:00:00 13,5 7,7 9,8 17,4 13,4 6 3 18 10 S 1025,6 20 0 0,0
20.05.2017 22:00:00 14,2 7,5 - - - 9 5 21 11 SSW 1025,0 20 - 0,0
20.05.2017 21:00:00 15,3 7,6 12,9 17,5 13,4 10 5 27 14 SW 1024,5 20 20 0,0
20.05.2017 20:00:00 17,6 8,4 16,9 17,5 13,4 11 6 31 17 SW 1023,9 20 43 0,0
20.05.2017 19:00:00 16,9 7,8 17,5 17,4 13,4 13 7 31 17 SSW 1023,4 20 12 0,0
20.05.2017 18:00:00 18,2 6,4 18,3 17,3 13,4 13 7 33 18 WSW 1023,0 20 35 0,0
20.05.2017 17:00:00 17,3 6,2 18,6 17,0 13,4 11 6 29 16 SW 1023,0 20 29 0,0
20.05.2017 16:00:00 18,2 7,6 19,2 16,8 13,3 13 7 35 19 SSW 1022,7 20 44 0,0
20.05.2017 15:00:00 17,6 7,9 19,4 16,5 13,3 13 7 36 19 SW 1022,6 20 43 0,0
20.05.2017 14:00:00 17,3 9,2 17,5 16,2 13,3 10 5 34 18 SSW 1022,7 20 56 0,0
20.05.2017 13:00:00 14,8 7,1 15,9 16,0 13,3 13 7 31 17 SW 1022,7 20 40 0,0
20.05.2017 12:00:00 14,4 8,3 16,0 15,9 13,3 16 8 35 19 S 1022,2 20 21 0,0
20.05.2017 11:00:00 15,5 8,0 20,7 15,7 13,3 15 8 28 15 S 1021,4 20 56 0,0
20.05.2017 10:00:00 13,8 8,4 19,3 15,8 13,3 10 5 22 12 SW 1021,2 20 60 0,0
20.05.2017 09:00:00 11,5 7,8 8,2 15,9 13,3 9 5 18 10 SSW 1020,7 20 60 0,0
20.05.2017 08:00:00 8,6 6,6 6,7 16,0 13,3 9 5 20 11 SW 1020,2 20 60 0,0
20.05.2017 07:00:00 7,5 6,3 4,3 16,2 13,3 8 4 16 9 SSW 1019,6 20 31 0,0
20.05.2017 06:00:00 7,4 6,0 4,1 16,3 13,3 5 3 16 8 SSW 1018,8 20 0 0,0
20.05.2017 05:00:00 8,0 5,6 5,4 16,5 13,3 5 3 19 10 WSW 1018,5 20 0 0,0
20.05.2017 04:00:00 8,3 6,1 6,1 16,6 13,2 6 4 16 9 WSW 1018,1 20 0 0,0
20.05.2017 03:00:00 9,0 7,0 7,7 16,8 13,2 8 4 18 10 SW 1017,8 20 0 0,0
20.05.2017 02:00:00 9,3 7,2 8,4 16,9 13,3 7 4 17 9 SSW 1017,7 20 0 0,0
20.05.2017 01:00:00 9,2 7,3 6,9 17,1 13,2 10 5 22 12 SW 1017,5 20 0 0,0
20.05.2017 00:00:00 9,4 7,7 6,4 17,2 13,2 11 6 20 11 SW 1017,3 20 0 0,0
19.05.2017 23:00:00 9,5 7,6 6,6 17,4 13,2 7 4 19 10 SW 1017,1 20 0 0,0
19.05.2017 22:00:00 10,9 8,1 9,1 17,4 13,2 7 4 40 22 WSW 1016,4 12 0 1,0
19.05.2017 21:00:00 13,6 6,7 11,9 17,5 13,2 11 6 32 17 SW 1015,6 20 11 0,0
19.05.2017 20:00:00 14,5 6,6 14,2 17,5 13,2 14 7 29 16 WSW 1015,1 20 25 0,0
19.05.2017 19:00:00 14,8 5,6 15,8 17,4 13,2 9 5 30 16 SSW 1015,2 20 22 0,0
19.05.2017 18:00:00 14,4 4,9 16,1 17,3 13,1 15 8 44 24 WSW 1015,2 20 15 0,0
19.05.2017 17:00:00 15,3 6,3 18,0 17,1 13,2 23 12 48 26 W 1015,1 20 57 0,0
19.05.2017 16:00:00 17,0 5,3 - - - 15 8 31 17 SW 1014,5 20 - 0,0
19.05.2017 15:00:00 14,6 11,2 11,8 16,8 13,1 11 6 36 19 S 1014,8 20 14 1,2
19.05.2017 14:00:00 14,8 5,6 16,1 16,7 13,1 9 5 25 14 W 1014,8 20 33 0,0
19.05.2017 13:00:00 13,7 4,8 13,1 16,6 13,1 8 4 29 16 W 1015,1 18 11 0,2
19.05.2017 12:00:00 14,5 6,3 14,6 16,5 13,1 12 7 28 15 W 1015,1 20 33 0,0
19.05.2017 11:00:00 13,4 7,6 14,8 16,5 13,0 12 6 36 19 W 1015,1 20 44 0,0
19.05.2017 10:00:00 11,9 7,8 12,2 16,5 13,0 11 6 30 16 W 1015,1 20 21 0,0
19.05.2017 09:00:00 10,8 7,8 10,3 16,6 13,0 14 7 30 16 W 1014,6 19 2 0,0
19.05.2017 08:00:00 10,0 7,8 9,2 16,7 13,0 10 6 29 16 WSW 1014,3 20 1 0,0

tt = Température de l'air
td = dewpoint
tt 5cm = Température de l'air 5cm
tt -20cm = Température de l'air -20cm
tt -100cm = Température de l'air -100cm
ff = Vitesse du vent
fx = gusts
dd = Direction du vent
ppp = reduced air pressure
vv = visibility
sd = Ensoleillement
rr = Quantités de précipitations

stations d'obs. à proximité